Location: Mentone
(34.5413°N, 85.5351°W)
Time: 19:19:59
(UTC-05:00)

AO-Echo - Visible Passes

Search period start: 25 June 2017 00:00
Search period end: 05 July 2017 00:00
Orbit: 694 x 810 km, 98.4° (Epoch: 25 June)

Date Brightness Start Highest point End Pass type
(mag) Time Alt. Az. Time Alt. Az. Time Alt. Az.
25 Jun ? 02:12:05 10° N 02:16:51 70° NNW 02:16:51 70° NNW visible
26 Jun ? 01:31:53 10° NNE 01:35:52 38° ENE 01:35:52 38° ENE visible
26 Jun ? 03:11:27 10° NNW 03:15:08 20° WNW 03:15:47 20° WNW visible
27 Jun ? 00:52:55 10° NE 00:54:52 15° ENE 00:54:52 15° ENE visible
27 Jun ? 02:30:01 10° N 02:34:47 48° WNW 02:34:47 48° WNW visible
28 Jun ? 01:49:27 10° NNE 01:53:47 55° NE 01:53:47 55° NE visible
28 Jun ? 03:30:18 10° NW 03:32:40 13° WNW 03:33:43 13° WNW visible
29 Jun ? 01:09:48 10° NE 01:12:47 22° ENE 01:12:47 22° ENE visible
29 Jun ? 02:48:06 10° N 02:52:39 32° WNW 02:52:43 32° WNW visible
30 Jun ? 02:07:12 10° N 02:11:42 68° N 02:11:42 68° N visible
01 Jul ? 01:27:06 10° NNE 01:30:42 33° ENE 01:30:42 33° ENE visible
01 Jul ? 03:06:24 10° NNW 03:10:14 22° WNW 03:10:37 22° WNW visible
02 Jul ? 00:48:28 10° ENE 00:49:41 13° ENE 00:49:41 13° ENE visible
02 Jul ? 02:25:05 10° N 02:29:36 52° NW 02:29:36 52° NW visible
03 Jul ? 01:44:37 10° NNE 01:48:36 47° ENE 01:48:36 47° ENE visible
03 Jul ? 03:25:06 10° NNW 03:27:47 15° WNW 03:28:31 14° WNW visible
04 Jul ? 01:05:08 10° NE 01:07:35 19° ENE 01:07:35 19° ENE visible
04 Jul ? 02:43:08 10° N 02:47:30 35° WNW 02:47:30 35° WNW visible
